Вернуться в каталог

FENGYUN 1C DEB

АктивенPO
NORAD 32409·DEBRIS·🇨🇳 China

Запущен May 10, 1999 с Taiyuan Satellite Launch Center

Loading…

Ближайшие Пролёты (ближайшие 24 часа)

TLE

УстаревающийSource: Space-Track

Эпоха: Sep 7, 2026, 21:05 UTC

1 32409U 99025CZV 26250.87851056  .00007302  00000-0  87633-3 0  9990
2 32409  99.5593 111.2465 0036212  43.5121 329.0676 14.83948273628222

Отслеживайте FENGYUN 1C DEB в реальном времени с AllMySat

Download on the App Store